UKUBE-1

Last updated on Thu Sep 24 2026 00:04:05 GMT+0000 (Coordinated Universal Time)

1 40074U 14037F 26266.56326045 .00005085 00000+0 27798-3 0 9996 2 40074 98.4265 280.2946 0001892 141.4747 218.6618 15.14823456663444
UTC large
Height (km)
Speed (km/s)
/
Latitude / Longitude
Inclination (degrees)
Orbital Period (minutes)
Azimuth
Elevation
Range (km)
Doppler Factor

Next 0 passes for location: London (51.5072 / 0.1276)

No passes found over London.
UKUBE-1